Location: Gombori
(14.9797°N, 2.9419°W)
Time: 16:13:34
(UTC+00:00)

Cosmos 2279 Rocket - Visible Passes

Search period start: 03 December 2021 00:00
Search period end: 13 December 2021 00:00
Orbit: 963 x 980 km, 82.9° (Epoch: 02 December)

Date Brightness Start Highest point End Pass type
(mag) Time Alt. Az. Time Alt. Az. Time Alt. Az.
03 Dec 5.6 05:18:23 10° NNE 05:24:01 36° E 05:29:38 10° SSE visible
03 Dec 4.8 18:31:25 10° SSW 18:37:27 53° W 18:43:29 10° N visible
04 Dec 4.2 05:41:58 10° N 05:48:09 76° E 05:54:20 10° S visible
04 Dec 6.1 18:56:37 10° SW 19:01:38 25° W 19:06:37 10° NNW visible
05 Dec 6.8 04:24:29 10° ENE 04:26:55 12° E 04:29:22 10° ESE visible
05 Dec 6.9 19:24:04 10° W 19:25:53 11° W 19:27:42 10° WNW visible
06 Dec 5.9 04:46:02 10° NNE 04:51:11 27° E 04:56:19 10° SE visible
06 Dec 4.4 17:58:27 10° S 18:04:39 71° W 18:10:50 10° N visible
07 Dec 4.6 05:09:16 10° N 05:15:20 57° E 05:21:24 10° SSE visible
07 Dec 5.8 18:23:16 10° SSW 18:28:47 34° W 18:34:18 10° NNW visible
08 Dec 3.9 05:33:16 10° N 05:39:25 70° W 05:45:35 10° S visible
08 Dec 6.7 18:49:24 10° WSW 18:53:00 16° W 18:56:37 10° NW visible
09 Dec 6.3 04:13:53 10° NE 04:18:20 20° E 04:22:46 10° SE visible
09 Dec 4.6 05:57:58 10° NNW 06:03:25 33° W 06:08:54 10° SSW visible
10 Dec 5.1 04:36:42 10° NNE 04:42:31 43° E 04:48:21 10° SSE visible
11 Dec 3.9 05:00:25 10° N 05:06:37 88° E 05:12:51 10° S visible
11 Dec 6.5 18:15:34 10° SW 18:20:09 22° W 18:24:44 10° NW visible
12 Dec 6.5 03:42:04 10° NE 03:45:28 15° E 03:48:50 10° ESE visible
12 Dec 4.3 05:24:49 10° NNW 05:30:39 45° W 05:36:31 10° SSW visible
